Simultaneous Nadir Overpasses (SNOs) Predictions

Prediction of SNOs between AQUA and GOES-15 Satellite Orbit:

Table of predicted SNOs for the next 14.0 days since TLE Epoch: 3/20/2015
Index Date Time (AQUA) AQUA Lat,Lon GOES-15 Lat,Lon Distance(km) Time Diff (sec)
1 03/21/2015 10:38:43 0.12,-135.54 -0.00,-135.00 61.99 80
2 03/23/2015 10:26:32 -0.53,-132.59 -0.01,-134.93 266.65 80
3 03/23/2015 22:47:56 -0.59,-137.78 0.00,-134.88 328.71 80
4 03/25/2015 22:35:44 0.01,-134.81 0.00,-134.80 1.13 80
5 03/27/2015 22:23:32 0.63,-131.85 0.00,-134.72 327.55 80
6 03/28/2015 10:44:46 0.48,-137.00 0.00,-134.73 257.30 80
7 03/30/2015 10:32:35 -0.15,-134.04 0.00,-134.65 70.31 80
8 04/01/2015 10:20:22 -0.74,-131.06 0.00,-134.56 397.57 80
9 04/01/2015 22:41:45 -0.36,-136.25 -0.00,-134.50 198.78 80




NCC Satellite Simultaneous Nadir Overpasses (SNOs) Prediction Service
